Location: Newark
(41.0400°S, 62.7845°W)
Time: 21:48:54
(UTC+00:00)

Courier 1B Rocket - Pass Details

Date: 08 December 2021
Orbit: 920 x 1202 km, 28.2° (Epoch: 21 January)

Event Time Altitude Azimuth Distance (km) Brightness Sun altitude
Rises 17:40:10 0° 281° (WNW) 4,052 8.6 62.7°
Reaches altitude 10° 17:43:59 10° 299° (WNW) 3,116 8.3 62.1°
Maximum altitude 17:48:56 18° 338° (NNW) 2,558 7.9 61.3°
Drops below altitude 10° 17:53:55 10° 18° (NNE) 3,131 7.9 60.5°
Sets 17:57:47 0° 36° (NE) 4,077 8.2 59.8°
